Hourly Data Report for October 18, 2012

All times are specified in Local Standard Time (LST). Add 1 hour to adjust for Daylight Saving Time where and when it is observed.

IQALUIT CLIMATE
NUNAVUT

63°44'50.000" N
68°32'40.000" W
33.50 m
2402592
71321
XFB

Download Data

Hourly Data (October 2012)
Hourly Data Report for October 18, 2012
Temp Definition
°C
Dew Point Temp Definition
°C
Rel Hum Definition
%
Wind Dir Definition
10's deg

Wind Spd Definition
km/h
Visibility Definition
km
Stn Press Definition
kPa
Hmdx Definition


Wind Chill Definition


Weather Definition


TIME
00:00 -8.1 -9.9 87 36 6   101.30   -11 LegendNANA
01:00 -9.7 -11.2 89 1 7   101.30   -14 LegendNANA
02:00 -8.5 -11.1 81 1 6   101.29   -12 LegendNANA
03:00 -9.9 -11.9 85 1 4   101.28   -12 LegendNANA
04:00 -9.0 -11.4 83 36 6   101.30   -12 LegendNANA
05:00 -10.4 -12.2 87 36 6   101.26   -14 LegendNANA
06:00 -9.0 -11.2 84 1 6   101.25   -12 LegendNANA
07:00 -9.2 -10.5 90 1 7   101.24   -13 LegendNANA
08:00 -7.2 -8.8 88 33 7   101.27   -11 LegendNANA
09:00 -7.7 -9.4 88 32 7   101.27   -11 LegendNANA
10:00 -6.7 -8.7 86 33 9   101.27   -11 LegendNANA
11:00 -6.3 -8.7 83 33 9   101.27   -11 LegendNANA
12:00 -5.4 -7.9 83 33 11   101.28   -10 LegendNANA
13:00 -4.6 -6.7 85 32 11   101.27   -9 LegendNANA
14:00 -3.8 -5.8 86 28 11   101.29   -8 LegendNANA
15:00 -3.5 -5.3 87 26 9   101.31   -7 LegendNANA
16:00 -3.7 -5.3 89 30 6   101.35   -6 LegendNANA
17:00 -3.6 -5.1 89 31 7   101.38   -7 LegendNANA
18:00 -3.6 -5.0 90 33 9   101.39   -7 LegendNANA
19:00 -2.9 -5.0 85 33 15   101.41   -8 LegendNANA
20:00 -3.1 -5.2 85 31 11   101.43   -7 LegendNANA
21:00 -3.6 -4.8 91 1 2   101.41   -4 LegendNANA
22:00 -3.5 -4.9 90 29 4   101.43   -5 LegendNANA
23:00 -3.7 -4.8 92 3 4   101.42   -5 LegendNANA

Notes on Data Quality.

Legend

  • E = Estimated
  • M = Missing
  • NA = Not Available
  • ‡ = Partner data that is not subject to review by the National Climate Archives
Date modified: